Flag for Germany Weather past 2 weeks in Hemer, North Rhine-Westphalia, Germany

Now
59 °F

Passing clouds.


Feels Like: 60 °F
Forecast: 53 / 74 °F
Wind: 3 mph from North

Location: Dortmund / Wickede

Current Time: Jul 25, 2014 at 6:20:47 AM

Latest Report: Jul 25, 2014 at 5:50 AM


Visibility: N/A

Pressure: 29.98 "Hg

Humidity: 88%

Dew point: 55 °F

Location of HemerLocation

Historic Weather in Hemer — Graph

°F

Hemer temperature yesterday

Maximum temperature yesterday: 77 °F (at 1:50 PM)
Minimum temperature yesterday: 59 °F (at 5:20 AM)
Average temperature yesterday: 70 °F

Past Weeks' High & Low Weather Summary

 TemperatureHumidityPressure
High90 °F (Jul 19, 1:20 PM)100% (Jul 10, 5:20 AM)30.18 "Hg (Jul 10, 5:20 AM)
Low55 °F (Jul 15, 5:20 AM)22% (Jul 19, 2:50 PM)29.71 "Hg (Jul 9, 10:20 PM)
Average71 °F65%29.96 "Hg
* Reported Jul 9 10:20 PM — Jul 24 10:50 PM, Hemer, Weather by CustomWeather, © 2014

Note: Actual official high and low records may vary slightly from our data, if they occured in-between our weather recording intervals... More about our weather records

Advertising

Hemer weather history for previous 24 hours

 ConditionsComfort  
Time TempWeatherWind HumidityBarometerVisibility
10:50 PM
Jul 24
64 °FPassing clouds.5 mph73%30.01 "HgN/A
10:20 PM64 °FPassing clouds.7 mph73%30.01 "HgN/A
9:50 PM66 °FPassing clouds.9 mph68%30.01 "HgN/A
9:20 PM66 °FPassing clouds.9 mph68%30.01 "HgN/A
8:50 PM68 °FPassing clouds.10 mph60%30.01 "HgN/A
8:20 PM72 °FPassing clouds.8 mph57%29.98 "HgN/A
7:50 PM72 °FPassing clouds.9 mph50%29.98 "HgN/A
7:20 PM72 °FPassing clouds.10 mph53%29.98 "HgN/A
6:50 PM72 °FPassing clouds.13 mph53%29.98 "HgN/A
6:20 PM73 °FPassing clouds.13 mph47%29.98 "HgN/A
5:50 PM73 °FPassing clouds.12 mph47%29.98 "HgN/A
5:20 PM75 °FPassing clouds.14 mph41%29.98 "HgN/A
4:50 PM77 °FPassing clouds.10 mph47%29.98 "HgN/A
4:20 PM73 °FPassing clouds.13 mph50%29.98 "HgN/A
3:50 PM75 °FPassing clouds.14 mph44%29.98 "HgN/A
3:20 PM77 °FPassing clouds.15 mph39%29.98 "HgN/A
2:50 PM77 °FPassing clouds.10 mph42%29.98 "HgN/A
2:20 PM77 °FPassing clouds.12 mph42%29.98 "HgN/A
1:50 PM77 °FPassing clouds.13 mph42%29.98 "HgN/A
1:20 PM75 °FPassing clouds.12 mph44%29.98 "HgN/A
12:50 PM75 °FPassing clouds.13 mph47%29.98 "HgN/A
12:20 PM75 °FPassing clouds.12 mph47%30.01 "HgN/A
11:50 AM73 °FPassing clouds.12 mph50%30.01 "HgN/A
11:20 AM72 °FPassing clouds.9 mph57%30.01 "HgN/A
10:50 AM70 °FPassing clouds.8 mph60%30.01 "HgN/A
10:20 AM68 °FPassing clouds.10 mph60%30.01 "HgN/A
9:50 AM68 °FPassing clouds.8 mph64%30.01 "HgN/A
9:20 AM66 °FPassing clouds.8 mph68%30.01 "HgN/A
8:50 AM66 °FPassing clouds.7 mph68%30.01 "HgN/A
8:20 AM64 °FPassing clouds.7 mph73%30.01 "HgN/A
7:50 AM64 °FPassing clouds.5 mph73%30.01 "HgN/A
7:20 AM63 °FSunny.3 mph77%30.01 "Hg10 mi
6:50 AM61 °FSunny.2 mph83%30.01 "Hg10 mi
6:20 AM59 °FClear.2 mph82%30.01 "Hg10 mi
Weather by CustomWeather, © 2014

See weather overviewHow to use our weather pages